Location: Dover
(48.8500°N, 53.9833°W)
Time: 16:08:49
(UTC+00:00)

RESURS DK-1 - Pass Details

Date: 14 November 2025
Orbit: 524 x 534 km, 69.9° (Epoch: 12 December)

Event Time Altitude Azimuth Distance (km) Brightness Sun altitude
Rises 22:23:01 0° 324° (NW) 2,697 6.3 -24.0°
Reaches altitude 10° 22:25:17 10° 318° (NW) 1,801 5.5 -24.4°
Maximum altitude 22:29:03 41° 247° (WSW) 788 3.5 -25.0°
Enters shadow 22:30:32 29° 200° (SSW) 1,008 3.8 -25.2°
